Weather Roundup
Issued by NWS Chicago, IL

Home | Current Version | Previous Version | Text Only | Print | Product List | Glossary Off
Versions: 1 2 3 4 5 6 7 8 9 10 11 12 13 14 15 16 17 18 19 20 21 22 23 24 25 26 27 28 29 30 31 32 33 34 35 36 37 38 39 40 41 42 43 44 45 46 47 48 49 50

804
NZUS59 KLOT 240908
HRRLOT

CHICAGO AREA WEATHER ROUNDUP
NATIONAL WEATHER SERVICE CHICAGO/ROMEOVILLE IL
400 AM CDT SAT JUN 24 2017

NOTE: "FAIR" INDICATES FEW OR NO CLOUDS BELOW 12,000 FEET WITH NO
SIGNIFICANT WEATHER AND/OR OBSTRUCTIONS TO VISIBILITY.

* THESE STATIONS ARE NOT UNDER NWS QUALITY CONTROL. THEY ALSO MAY NOT
  REPORT WEATHER SUCH AS PRECIPITATION OR FOG.

ILZ005-006-012>014-019>023-241000-
NORTHEAST ILLINOIS

CITY           SKY/WX    TMP DP  RH WIND       PRES   REMARKS
OHARE          CLEAR     63  55  75 W10       29.88R
MIDWAY         CLEAR     64  56  75 W8        29.88R
AURORA         CLEAR     59  56  89 W9        29.92R
LANSING*       CLEAR     62  54  74 W6        29.89S
JOLIET*        CLEAR     62  58  86 CALM      29.91R
WAUKEGAN       PTCLDY    61  55  81 W5        29.86R
DUPAGE AIRPORT CLEAR     60  57  89 W8        29.89R
WHEELING       CLEAR     63  57  81 NW7       29.89R
MORRIS*        CLEAR     58  56  91 W6        29.91R
LEWIS AIRPORT* CLEAR     61  55  80 W6        29.91R
NORTHERLY ISL    N/A     65  54  67 NW5         N/A
$$

WIZ051-052-058>065-066-070>072-241000-
SOUTHEAST WISCONSIN

CITY           SKY/WX    TMP DP  RH WIND       PRES   REMARKS
MILWAUKEE      CLEAR     63  54  72 W6        29.86R
KENOSHA*       CLEAR     60  54  80 W9        29.86S
RACINE*        CLEAR     61  54  77 W8        29.87R
WAUKESHA       CLEAR     55  52  88 W13       29.88R
WEST BEND      CLEAR     59  54  82 W9        29.85S
$$

INZ001>003-010>013-019-020-241000-
NORTHWEST INDIANA

CITY           SKY/WX    TMP DP  RH WIND       PRES   REMARKS
GARY*          PTCLDY    64  54  69 W7        29.89R
MICHIGAN CITY* NOT AVBL
RENSSELAER*    NOT AVBL
VALPARAISO     CLEAR     61  56  83 W7        29.88S
$$

LMZ740>746-241000-
SOUTHERN LAKE MICHIGAN

STATION/POSITION TIME  SKY/WX   TEMP WIND        PRES    VSBY
                                AIR  DIR/SP/G
                 (UTC)          (F)  (DEG/KT/KT) (MB)    (MI)
HARRISON CRIB    0840            66  290/ 12/ 12   N/A
BURNHAM HARBOR   0900            65                N/A
CALUMET HARBOR   0848            64  250/  2/  6 1011.3R
BURNS HARBOR     0840            66  280/ 14/ 17 1011.9S
MICHIGAN CITY    0840            66  270/ 19/ 21   N/A
$$

ABBREVIATIONS USED IN REMARKS
   TC - TEMPERATURE IN CELSIUS
  WCI - WIND CHILL INDEX
   HX - HEAT INDEX
  VSB - VISIBILITY
$$




USA.gov is the U.S. government's official web portal to all federal, state and local government web resources and services.